Flag for Canada Weather past 2 weeks in Mississauga, Ontario, Canada

Now
77 °F

Partly sunny.


Feels Like: 79 °F
Forecast: 62 / 77 °F
Wind: 9 mph from West

Location: Toronto Pearson International Airport

Current Time: Jul 26, 2014 at 1:28:08 PM

Latest Report: Jul 26, 2014 at 1:00 PM


Visibility: 15 mi

Pressure: 29.88 "Hg

Humidity: 51%

Dew point: 57 °F

Location of MississaugaLocation

Historic Weather in Mississauga — Graph

°F

Mississauga temperature yesterday

Maximum temperature yesterday: 77 °F (at 3:00 PM)
Minimum temperature yesterday: 55 °F (at 5:00 AM)
Average temperature yesterday: 68 °F

Past Weeks' High & Low Weather Summary

 TemperatureHumidityPressure
High86 °F (Jul 22, 7:00 PM)100% (Jul 19, 9:00 PM)30.25 "Hg (Jul 19, 9:00 PM)
Low52 °F (Jul 17, 5:00 AM)29% (Jul 18, 6:00 PM)29.66 "Hg (Jul 15, 10:00 AM)
Average68 °F65%30.00 "Hg
* Reported Jul 11 12:00 Noon — Jul 26 12:00 Noon, Mississauga, Weather by CustomWeather, © 2014

Note: Actual official high and low records may vary slightly from our data, if they occured in-between our weather recording intervals... More about our weather records

Advertising

Mississauga weather history for previous 24 hours

 ConditionsComfort  
Time TempWeatherWind HumidityBarometerVisibility
12:00 PM
Jul 26
77 °FBroken clouds.6 mph54%29.90 "Hg15 mi
11:00 AM75 °FPartly sunny.10 mph57%29.91 "Hg15 mi
10:00 AM72 °FPartly sunny.7 mph65%29.91 "Hg15 mi
9:00 AM68 °FPartly sunny.5 mph69%29.92 "Hg15 mi
8:00 AM64 °FOvercast.3 mph78%29.93 "Hg15 mi
7:00 AM64 °FPartly sunny.3 mph73%29.93 "Hg15 mi
6:00 AM63 °FPartly cloudy.3 mph77%29.92 "Hg15 mi
5:00 AM63 °FPassing clouds.7 mph73%29.93 "Hg15 mi
4:00 AM64 °FPassing clouds.7 mph68%29.92 "Hg15 mi
3:00 AM63 °FPassing clouds.5 mph73%29.92 "Hg15 mi
2:00 AM64 °FPassing clouds.5 mph68%29.93 "Hg15 mi
1:00 AM64 °FPassing clouds.9 mph68%29.95 "Hg15 mi
12:00 AM64 °FPassing clouds.8 mph68%29.95 "Hg15 mi
11:00 PM
Jul 25
66 °FPassing clouds.12 mph68%29.96 "Hg15 mi
10:00 PM68 °FPassing clouds.15 mph64%29.95 "Hg15 mi
9:00 PM72 °FBroken clouds.14 mph61%29.94 "Hg15 mi
8:00 PM73 °FBroken clouds.12 mph47%29.94 "Hg15 mi
7:00 PM75 °FBroken clouds.10 mph44%29.94 "Hg15 mi
6:00 PM77 °FBroken clouds.15 mph39%29.94 "Hg15 mi
5:00 PM77 °FBroken clouds.13 mph42%29.95 "Hg15 mi
4:00 PM77 °FScattered clouds.10 mph36%29.96 "Hg15 mi
3:46 PM77 °FScattered clouds.12 mph36%29.97 "Hg15 mi
3:00 PM77 °FScattered clouds.12 mph42%29.98 "Hg15 mi
2:00 PM75 °FPassing clouds.6 mph41%29.99 "Hg15 mi
1:00 PM75 °FScattered clouds.8 mph41%30.01 "Hg15 mi
Weather by CustomWeather, © 2014

See weather overviewHow to use our weather pages